Flag for Netherlands Weather past 2 weeks in Emmen, Netherlands

Now
51 °F

Partly sunny.


Feels Like: 51 °F
Forecast: 45 / 62 °F
Wind: 2 mph from West

Location: Meppen

Current Time: Sep 22, 2014 at 1:13:00 PM

Latest Report: Sep 22, 2014 at 12:00 PM


Visibility: 9 mi

Pressure: 30.05 "Hg

Humidity: 90%

Dew point: 49 °F

Location of EmmenLocation

Historic Weather in Emmen — Graph

°F

Emmen temperature yesterday

Maximum temperature yesterday: 65 °F (at 3:00 PM)
Minimum temperature yesterday: 55 °F (at 10:00 PM)
Average temperature yesterday: 60 °F

Past Weeks' High & Low Weather Summary

 TemperatureHumidityPressure
High78 °F (Sep 18, 4:00 PM)96% (Sep 15, 6:00 AM)30.28 "Hg (Sep 15, 6:00 AM)
Low47 °F (Sep 15, 7:00 AM)45% (Sep 18, 4:00 PM)29.85 "Hg (Sep 18, 7:00 PM)
Average61 °F80%30.05 "Hg
* Reported Sep 7 10:00 AM — Sep 22 10:00 AM, Emmen, Weather by CustomWeather, © 2014

Note: Actual official high and low records may vary slightly from our data, if they occured in-between our weather recording intervals... More about our weather records

Advertising

Emmen weather history for previous 24 hours

 ConditionsComfort  
Time TempWeatherWind HumidityBarometerVisibility
10:00 AM
Sep 22
57 °FPartly sunny.6 mph66%30.01 "Hg12 mi
9:00 AM53 °FPassing clouds.6 mph73%30.01 "Hg9 mi
8:00 AM54 °FSprinkles. Partly sunny.3 mph70%30.02 "Hg9 mi
7:00 AM54 °FOvercast.3 mph75%30.03 "Hg11 mi
6:00 AMN/APassing clouds.N/AN/AN/A2 mi
4:00 AM54 °FCool.3 mph83%30.04 "Hg4 mi
3:00 AM54 °FCool.3 mph80%30.06 "Hg4 mi
1:00 AM55 °FCool.3 mph78%30.06 "Hg4 mi
12:00 AM55 °FCool.3 mph79%30.07 "Hg4 mi
10:00 PM
Sep 21
55 °FCool.3 mph85%30.06 "Hg5 mi
9:00 PM56 °FCool.2 mph82%30.06 "Hg4 mi
8:00 PM57 °FCool.3 mph73%30.04 "Hg5 mi
7:00 PM59 °FCool.3 mph64%30.03 "Hg5 mi
6:00 PM61 °FRefreshingly cool.3 mph60%30.03 "Hg5 mi
4:00 PM63 °FMild.5 mph60%30.02 "Hg5 mi
3:00 PM65 °FMild.5 mph57%30.02 "Hg4 mi
2:00 PM65 °FMild.3 mph55%30.02 "Hg5 mi
1:00 PM64 °FMild.5 mph57%30.02 "Hg5 mi
Weather by CustomWeather, © 2014

See weather overviewHow to use our weather pages